Weather History for KEYW - September, 2012

Change the Weather History Date:

Tuesday, September 18, 2012

  Actual Average Record
Temperature  
Mean Temperature 84 °F 83 °F  
Max Temperature 87 °F 88 °F 92 °F (1949)
Min Temperature 81 °F 79 °F 70 °F (1891)
Degree Days  
Heating Degree Days 0 0  
Month to date heating degree days 0 0  
Since 1 July heating degree days 0 0  
Cooling Degree Days 19 18  
Month to date cooling degree days 323 334  
Year to date cooling degree days 3649 3523  
Growing Degree Days 34 (Base 50)    
Moisture  
Dew Point 77 °F    
Average Humidity 79    
Maximum Humidity 85    
Minimum Humidity 72    
Precipitation  
Precipitation 0.00 in 0.25 in 2.55 in (1879)
Month to date precipitation 3.67 4.01  
Year to date precipitation 41.02 27.68  
Snow  
Snow 0.00 in - - ()
Month to date snowfall 0.0  
Since 1 July snowfall 0.0  
Since 1 September snowfall 0.0  
Snow Depth 0.00 in    
Sea Level Pressure  
Sea Level Pressure 29.97 in    
Wind  
Wind Speed 11 mph (SSW)    
Max Wind Speed 22 mph    
Max Gust Speed 29 mph    
Visibility 10 miles    
Events      
T = Trace of Precipitation, MM = Missing Value Source: NWS Daily Summary

Daily Weather History Graph

Daily Weather History Graph

Search for Another Location

Airport or City:

Trip Planner

Search our weather history database for the weather conditions in past years. The results will help you decide how hot, cold, wet, or windy it might be!

Date:

Astronomy

Sep. 18, 2012 Rise Set
Actual Time 7:14 AM EDT 7:27 PM EDT
Civil Twilight 6:51 AM EDT 7:49 PM EDT
Nautical Twilight 6:25 AM EDT 8:16 PM EDT
Astronomical Twilight 5:58 AM EDT 8:43 PM EDT
Moon 9:47 AM EDT (9/18) 9:17 PM EDT (9/18)
Length of Visible Light 12h 58m
Length of Day
12h 12m
Waxing Crescent, 9% of the Moon is Illuminated
Sep 18
Waxing Crescent
Sep 22
First Quarter
Sep 29
Full
Oct 8
Last Quarter
Oct 15
New

Hourly Weather History & Observations

Time (EDT) Temp. Heat Index Dew Point Humidity Pressure Visibility Wind Dir Wind Speed Gust Speed Precip Events Conditions
12:53 AM 82.9 °F 90.2 °F 75.0 °F 77% 29.99 in 10.0 mi SSE 12.7 mph - N/A   Partly Cloudy
1:53 AM 82.0 °F 90.2 °F 77.0 °F 85% 29.98 in 10.0 mi SSE 11.5 mph - N/A   Partly Cloudy
2:53 AM 82.9 °F 90.2 °F 75.0 °F 77% 29.96 in 10.0 mi SSE 12.7 mph - N/A   Partly Cloudy
3:53 AM 82.0 °F 88.6 °F 75.0 °F 79% 29.95 in 10.0 mi South 11.5 mph - N/A   Clear
4:53 AM 82.0 °F 88.6 °F 75.0 °F 79% 29.94 in 10.0 mi South 12.7 mph - N/A   Clear
5:53 AM 82.0 °F 88.6 °F 75.0 °F 79% 29.94 in 10.0 mi South 9.2 mph - N/A   Clear
6:53 AM 82.0 °F 88.6 °F 75.0 °F 79% 29.94 in 10.0 mi South 11.5 mph - N/A   Clear
7:53 AM 82.9 °F 90.8 °F 75.9 °F 79% 29.95 in 10.0 mi South 10.4 mph - N/A   Clear
8:53 AM 84.0 °F 93.7 °F 77.0 °F 79% 29.97 in 10.0 mi South 11.5 mph - N/A   Clear
9:53 AM 84.0 °F 93.7 °F 77.0 °F 79% 29.98 in 10.0 mi South 11.5 mph - N/A   Partly Cloudy
10:30 AM 84.2 °F 96.1 °F 78.8 °F 84% 29.99 in 10.0 mi South 12.7 mph - N/A   Mostly Cloudy
10:40 AM 84.2 °F 96.1 °F 78.8 °F 84% 29.99 in 10.0 mi South 11.5 mph - N/A   Scattered Clouds
10:53 AM 84.9 °F 96.6 °F 78.1 °F 80% 29.99 in 10.0 mi South 12.7 mph - N/A   Partly Cloudy
11:53 AM 86.0 °F 96.9 °F 77.0 °F 74% 30.00 in 10.0 mi South 11.5 mph - N/A   Clear
11:59 AM 87.8 °F 102.5 °F 78.8 °F 75% 29.99 in 5.0 mi South 11.5 mph - N/A   Haze
12:53 PM 87.1 °F 99.8 °F 78.1 °F 74% 30.00 in 5.0 mi South 11.5 mph 19.6 mph N/A   Haze
1:53 PM 87.1 °F 98.8 °F 77.0 °F 72% 29.98 in 10.0 mi SSW 12.7 mph 18.4 mph N/A   Clear
2:53 PM 87.1 °F 99.8 °F 78.1 °F 74% 29.96 in 10.0 mi SW 9.2 mph - N/A   Partly Cloudy
3:53 PM 87.1 °F 99.8 °F 78.1 °F 74% 29.93 in 10.0 mi SW 9.2 mph - N/A   Clear
4:53 PM 86.0 °F 96.9 °F 77.0 °F 74% 29.93 in 10.0 mi WSW 6.9 mph - N/A   Clear
5:53 PM 84.9 °F 95.3 °F 77.0 °F 77% 29.94 in 10.0 mi SW 3.5 mph - N/A   Clear
6:53 PM 84.9 °F 94.1 °F 75.9 °F 74% 29.95 in 10.0 mi West 4.6 mph - N/A   Clear
7:53 PM 84.9 °F 96.6 °F 78.1 °F 80% 29.97 in 10.0 mi NW 9.2 mph - N/A   Clear
8:53 PM 81.0 °F 86.2 °F 73.9 °F 79% 29.99 in 10.0 mi NNW 16.1 mph 23.0 mph N/A   Partly Cloudy
9:53 PM 82.0 °F 87.4 °F 73.0 °F 74% 30.01 in 10.0 mi NNW 15.0 mph 19.6 mph N/A   Clear
10:53 PM 82.0 °F 88.6 °F 75.0 °F 79% 30.00 in 10.0 mi NNW 13.8 mph - N/A   Clear
11:53 PM 82.0 °F 88.6 °F 75.0 °F 79% 30.01 in 10.0 mi NNW 13.8 mph - N/A   Mostly Cloudy